Time,TemperatureF,DewpointF,PressureIn,WindDirection,WindDirectionDegrees,WindSpeedMPH,WindSpeedGustMPH,Humidity,HourlyPrecipIn,Conditions,Clouds,dailyrainin,SoftwareType,DateUTC
2013-12-15 00:22:00,29.0,29.0,29.73,North,0,0.0,0.0,99,0.00,,,0.00,,2013-12-15 05:22:00,
2013-12-15 00:33:00,29.0,29.0,29.73,North,0,0.0,0.0,99,0.00,,,0.00,,2013-12-15 05:33:00,
2013-12-15 00:42:00,29.0,29.0,29.73,North,0,0.0,0.0,99,0.00,,,0.00,,2013-12-15 05:42:00,
2013-12-15 00:53:00,29.0,29.0,29.70,North,0,0.0,0.0,99,0.00,,,0.00,,2013-12-15 05:53:00,
2013-12-15 01:12:00,29.0,29.0,29.70,North,0,0.0,0.0,99,0.00,,,0.00,,2013-12-15 06:12:00,
2013-12-15 01:22:00,28.0,28.0,29.67,North,0,0.0,0.0,99,0.00,,,0.00,,2013-12-15 06:22:00,
2013-12-15 01:42:00,30.0,30.0,29.67,North,0,0.0,0.0,99,0.00,,,0.00,,2013-12-15 06:42:00,
2013-12-15 01:52:00,30.0,30.0,29.64,North,0,0.0,0.0,99,0.00,,,0.00,,2013-12-15 06:52:00,
2013-12-15 02:11:00,30.0,30.0,29.64,North,0,0.0,0.0,99,0.00,,,0.00,,2013-12-15 07:11:00,
2013-12-15 02:22:00,30.0,30.0,29.64,North,0,0.0,0.0,99,0.00,,,0.00,,2013-12-15 07:22:00,
2013-12-15 02:42:00,30.0,30.0,29.65,North,0,0.0,0.0,99,0.00,,,0.00,,2013-12-15 07:42:00,
2013-12-15 02:52:00,30.0,30.0,29.65,North,0,0.0,0.0,99,0.00,,,0.00,,2013-12-15 07:52:00,
2013-12-15 03:11:00,30.0,30.0,29.63,North,0,0.0,0.0,99,0.00,,,0.00,,2013-12-15 08:11:00,
2013-12-15 03:22:00,31.0,31.0,29.63,North,0,0.0,0.0,99,0.00,,,0.00,,2013-12-15 08:22:00,
2013-12-15 03:32:00,31.0,31.0,29.63,North,0,0.0,0.0,99,0.00,,,0.00,,2013-12-15 08:32:00,
2013-12-15 03:42:00,31.0,31.0,29.63,North,0,0.0,0.0,99,0.00,,,0.00,,2013-12-15 08:42:00,
2013-12-15 03:52:00,31.0,31.0,29.63,North,0,0.0,0.0,99,0.00,,,0.00,,2013-12-15 08:52:00,
2013-12-15 08:42:00,30.0,30.0,29.65,North,0,0.0,0.0,99,0.00,,,0.00,,2013-12-15 13:42:00,
2013-12-15 08:52:00,30.0,30.0,29.65,North,0,0.0,0.0,99,0.00,,,0.00,,2013-12-15 13:52:00,
2013-12-15 09:02:00,30.0,30.0,29.65,North,0,0.0,0.0,99,0.00,,,0.00,,2013-12-15 14:02:00,
2013-12-15 09:22:00,30.0,30.0,29.67,North,0,0.0,0.0,99,0.00,,,0.00,,2013-12-15 14:22:00,
2013-12-15 09:42:00,30.0,30.0,29.67,North,0,0.0,0.0,99,0.00,,,0.00,,2013-12-15 14:42:00,
2013-12-15 09:52:00,30.0,30.0,29.68,North,0,0.0,0.0,99,0.00,,,0.00,,2013-12-15 14:52:00,
2013-12-15 10:12:00,31.0,31.0,29.70,North,0,0.0,0.0,99,0.00,,,0.00,,2013-12-15 15:12:00,
2013-12-15 10:22:00,33.0,33.0,29.70,North,0,0.0,0.0,99,0.00,,,0.00,,2013-12-15 15:22:00,
2013-12-15 10:43:00,33.0,33.0,29.70,North,0,0.0,0.0,99,0.00,,,0.00,,2013-12-15 15:43:00,
2013-12-15 10:53:00,33.0,33.0,29.71,North,0,0.0,0.0,99,0.00,,,0.00,,2013-12-15 15:53:00,
2013-12-15 11:13:00,33.0,33.0,29.72,North,0,0.0,0.0,99,0.00,,,0.00,,2013-12-15 16:13:00,
2013-12-15 11:23:00,33.0,33.0,29.72,North,0,0.0,0.0,99,0.00,,,0.00,,2013-12-15 16:23:00,
2013-12-15 11:43:00,34.0,34.0,29.70,North,0,0.0,0.0,99,0.00,,,0.00,,2013-12-15 16:43:00,
2013-12-15 11:53:00,34.0,34.0,29.70,North,0,0.0,0.0,99,0.00,,,0.00,,2013-12-15 16:53:00,
2013-12-15 12:12:00,36.0,36.0,29.70,SE,135,0.0,4.0,99,0.00,,,0.00,,2013-12-15 17:12:00,
2013-12-15 12:22:00,36.0,36.0,29.70,NW,316,2.0,6.0,99,0.00,,,0.00,,2013-12-15 17:22:00,
2013-12-15 12:33:00,36.0,36.0,29.70,NW,316,2.0,6.0,99,0.00,,,0.00,,2013-12-15 17:33:00,
2013-12-15 12:42:00,36.0,36.0,29.70,NW,316,2.0,6.0,99,0.00,,,0.00,,2013-12-15 17:42:00,
2013-12-15 12:52:00,36.0,36.0,29.70,WNW,298,1.0,5.0,99,0.00,,,0.00,,2013-12-15 17:52:00,
2013-12-15 13:12:00,36.0,36.0,29.70,NW,311,1.0,4.0,99,0.00,,,0.00,,2013-12-15 18:12:00,
2013-12-15 13:22:00,36.0,36.0,29.70,NW,311,1.0,4.0,99,0.00,,,0.00,,2013-12-15 18:22:00,
2013-12-15 13:32:00,36.0,36.0,29.70,NW,311,1.0,4.0,99,0.00,,,0.00,,2013-12-15 18:32:00,
2013-12-15 13:42:00,36.0,36.0,29.70,NW,311,1.0,4.0,99,0.00,,,0.00,,2013-12-15 18:42:00,
2013-12-15 13:52:00,36.0,36.0,29.71,NW,311,1.0,4.0,99,0.00,,,0.00,,2013-12-15 18:52:00,
2013-12-15 14:11:00,36.0,36.0,29.72,NW,311,1.0,4.0,99,0.00,,,0.00,,2013-12-15 19:11:00,
2013-12-15 14:22:00,37.0,37.0,29.72,NW,315,3.0,5.0,99,0.00,,,0.00,,2013-12-15 19:22:00,
2013-12-15 14:42:00,37.0,37.0,29.74,NW,308,2.0,10.0,99,0.00,,,0.00,,2013-12-15 19:42:00,
2013-12-15 14:52:00,37.0,37.0,29.74,NNW,327,5.0,10.0,99,0.00,,,0.00,,2013-12-15 19:52:00,
2013-12-15 15:22:00,37.0,37.0,29.75,WNW,299,2.0,6.0,99,0.00,,,0.00,,2013-12-15 20:22:00,
2013-12-15 15:42:00,36.0,36.0,29.76,WNW,291,5.0,11.0,99,0.00,,,0.00,,2013-12-15 20:42:00,
2013-12-15 15:52:00,36.0,33.0,29.77,WNW,303,6.0,10.0,89,0.00,,,0.00,,2013-12-15 20:52:00,
2013-12-15 16:11:00,36.0,33.0,29.77,NNW,345,3.0,10.0,88,0.00,,,0.00,,2013-12-15 21:11:00,
2013-12-15 16:22:00,36.0,33.0,29.77,NNW,345,3.0,10.0,88,0.00,,,0.00,,2013-12-15 21:22:00,
2013-12-15 16:43:00,36.0,30.0,29.79,NNW,327,8.0,15.0,80,0.00,,,0.00,,2013-12-15 21:43:00,
2013-12-15 16:54:00,35.0,28.0,29.80,NW,319,6.0,17.0,74,0.00,,,0.00,,2013-12-15 21:54:00,
2013-12-15 17:12:00,35.0,28.0,29.80,NNW,327,4.0,17.0,75,0.00,,,0.00,,2013-12-15 22:12:00,
2013-12-15 17:23:00,35.0,29.0,29.81,NW,312,7.0,15.0,77,0.00,,,0.00,,2013-12-15 22:23:00,
2013-12-15 17:33:00,35.0,29.0,29.81,NW,312,7.0,15.0,77,0.00,,,0.00,,2013-12-15 22:33:00,
2013-12-15 17:43:00,35.0,29.0,29.81,NW,312,7.0,15.0,77,0.00,,,0.00,,2013-12-15 22:43:00,
2013-12-15 17:53:00,35.0,29.0,29.81,NW,312,7.0,15.0,77,0.00,,,0.00,,2013-12-15 22:53:00,
2013-12-15 18:12:00,34.0,25.0,29.83,WNW,297,4.0,12.0,69,0.00,,,0.00,,2013-12-15 23:12:00,
2013-12-15 18:22:00,33.0,24.0,29.84,NW,325,5.0,18.0,69,0.00,,,0.00,,2013-12-15 23:22:00,
2013-12-15 18:33:00,33.0,24.0,29.84,NW,325,5.0,18.0,69,0.00,,,0.00,,2013-12-15 23:33:00,
2013-12-15 18:52:00,31.0,23.0,29.85,WNW,295,4.0,14.0,72,0.00,,,0.00,,2013-12-15 23:52:00,
2013-12-15 19:11:00,31.0,23.0,29.85,North,358,3.0,11.0,72,0.00,,,0.00,,2013-12-16 00:11:00,
2013-12-15 19:22:00,31.0,23.0,29.86,North,358,3.0,11.0,72,0.00,,,0.00,,2013-12-16 00:22:00,
2013-12-15 19:32:00,31.0,23.0,29.86,North,358,3.0,11.0,72,0.00,,,0.00,,2013-12-16 00:32:00,
2013-12-15 19:42:00,31.0,23.0,29.86,North,358,3.0,11.0,72,0.00,,,0.00,,2013-12-16 00:42:00,
2013-12-15 19:52:00,30.0,22.0,29.87,WNW,291,2.0,8.0,72,0.00,,,0.00,,2013-12-16 00:52:00,
2013-12-15 20:11:00,29.0,21.0,29.87,West,261,2.0,6.0,73,0.00,,,0.00,,2013-12-16 01:11:00,
2013-12-15 20:22:00,29.0,21.0,29.87,West,261,2.0,6.0,73,0.00,,,0.00,,2013-12-16 01:22:00,
2013-12-15 20:32:00,29.0,21.0,29.87,West,261,2.0,6.0,73,0.00,,,0.00,,2013-12-16 01:32:00,